Bankhead Lake Weather Center

Moon Phase Calendar



Bankhead Lake Water Level
Online Cameras

 


      

Current Conditions in Rock Creek
12/7/2022 2:38:03 PM

74°F
Feels Like 75
Clouds
Humidity
73%
Pressure
30.18"
Wind
4.7 mph (WSW)
Dew Point
65°F
UV Index
0/10 (Low)
Visibility
6 mi

Hourly Forecast

Date & Time Wed, Dec 7
2:00 PM
Wed, Dec 7
3:00 PM
Wed, Dec 7
4:00 PM
Wed, Dec 7
5:00 PM
Wed, Dec 7
6:00 PM
Wed, Dec 7
7:00 PM
Wed, Dec 7
8:00 PM
Wed, Dec 7
9:00 PM
Wed, Dec 7
10:00 PM
Wed, Dec 7
11:00 PM
Thu, Dec 8
12:00 AM
Thu, Dec 8
1:00 AM
Thu, Dec 8
2:00 AM
Thu, Dec 8
3:00 AM
Thu, Dec 8
4:00 AM
Thu, Dec 8
5:00 AM
Thu, Dec 8
6:00 AM
Thu, Dec 8
7:00 AM
Thu, Dec 8
8:00 AM
Thu, Dec 8
9:00 AM
Thu, Dec 8
10:00 AM
Thu, Dec 8
11:00 AM
Thu, Dec 8
12:00 PM
Thu, Dec 8
1:00 PM
Thu, Dec 8
2:00 PM
Thu, Dec 8
3:00 PM
Thu, Dec 8
4:00 PM
Thu, Dec 8
5:00 PM
Thu, Dec 8
6:00 PM
Thu, Dec 8
7:00 PM
Thu, Dec 8
8:00 PM
Thu, Dec 8
9:00 PM
Thu, Dec 8
10:00 PM
Thu, Dec 8
11:00 PM
Fri, Dec 9
12:00 AM
Fri, Dec 9
1:00 AM
Fri, Dec 9
2:00 AM
Fri, Dec 9
3:00 AM
Fri, Dec 9
4:00 AM
Fri, Dec 9
5:00 AM
Fri, Dec 9
6:00 AM
Fri, Dec 9
7:00 AM
Fri, Dec 9
8:00 AM
Fri, Dec 9
9:00 AM
Fri, Dec 9
10:00 AM
Fri, Dec 9
11:00 AM
Fri, Dec 9
12:00 PM
Fri, Dec 9
1:00 PM
Condition
Rain

Clouds

Clouds

Clouds

Clouds

Clouds

Clouds

Clouds

Clouds

Clouds

Clouds

Clouds

Clouds

Clouds

Clouds

Clouds

Clouds

Clouds

Clouds

Clouds

Clouds

Clouds

Clouds

Clouds

Clouds

Clouds

Clouds

Clouds

Clouds

Clouds

Clouds

Clouds

Clouds

Clouds

Clouds

Clear

Clear

Clear

Clouds

Clouds

Clouds

Clouds

Clouds

Clouds

Clouds

Clouds

Rain

Rain
Temperature 75°F74°F74°F73°F70°F68°F66°F65°F64°F64°F63°F63°F63°F63°F63°F63°F63°F64°F66°F68°F72°F75°F76°F76°F77°F76°F73°F68°F66°F65°F64°F64°F63°F63°F62°F62°F62°F61°F61°F60°F60°F60°F64°F68°F70°F70°F74°F75°F
Feels Like 75°F75°F75°F73°F71°F69°F67°F66°F65°F64°F64°F63°F63°F63°F63°F63°F64°F64°F66°F69°F73°F75°F76°F77°F77°F77°F73°F68°F66°F65°F64°F64°F64°F63°F63°F62°F62°F61°F61°F61°F61°F61°F64°F68°F70°F70°F74°F75°F
Cloudiness 95%95%95%95%93%56%46%39%36%33%30%21%39%47%46%47%53%98%98%92%77%64%63%60%56%40%32%27%31%65%41%38%30%26%23%9%9%10%11%20%30%89%66%70%69%75%77%52%
Visibility 6 mi6 mi6 mi6 mi6 mi6 mi6 mi6 mi6 mi6 mi6 mi6 mi6 mi6 mi6 mi6 mi6 mi6 mi6 mi6 mi6 mi6 mi6 mi6 mi6 mi6 mi6 mi6 mi6 mi6 mi6 mi6 mi6 mi6 mi6 mi6 mi6 mi6 mi6 mi6 mi6 mi6 mi6 mi6 mi6 mi6 mi6 mi6 mi
Precipitation 48%48%61%57%53%0%0%0%0%0%0%0%0%0%0%0%0%1%1%5%4%0%0%12%8%0%0%0%0%0%0%0%0%0%0%0%0%0%0%0%0%0%0%0%0%0%20%63%
Humidity 71%73%75%77%82%86%90%92%93%94%94%94%94%94%95%95%95%94%92%85%75%69%66%62%58%60%68%79%83%86%88%89%90%91%92%93%95%96%96%97%97%97%89%80%77%77%69%68%
Dew Point 65°F65°F66°F65°F65°F64°F63°F62°F62°F61°F61°F61°F60°F60°F61°F61°F61°F62°F63°F63°F63°F63°F63°F62°F61°F61°F61°F61°F60°F60°F60°F60°F60°F60°F60°F60°F59°F59°F59°F59°F59°F59°F60°F61°F62°F62°F62°F63°F
Pressure 30.18"30.18"30.18"30.18"30.21"30.24"30.27"30.27"30.24"30.24"30.24"30.24"30.24"30.21"30.21"30.21"30.21"30.21"30.21"30.21"30.21"30.18"30.15"30.12"30.12"30.12"30.12"30.12"30.12"30.12"30.15"30.15"30.12"30.12"30.12"30.12"30.12"30.12"30.09"30.09"30.12"30.12"30.12"30.15"30.12"30.12"30.09"30.06"
Wind Speed 7 mph4.7 mph4 mph3.4 mph2.6 mph2.3 mph2.2 mph1.9 mph1.6 mph2.3 mph1.9 mph1.9 mph1.4 mph2.8 mph4.3 mph4.4 mph4.8 mph4.9 mph5.5 mph6.9 mph8.6 mph9.1 mph9.9 mph9.9 mph9.2 mph7.5 mph6 mph4.8 mph5.3 mph5.1 mph4.6 mph4.6 mph4.6 mph4.4 mph4.5 mph4.5 mph4.5 mph4.5 mph4.5 mph4.6 mph4.9 mph5 mph6.3 mph8 mph7.4 mph6.8 mph8.2 mph8.9 mph
Wind
Direction
257°
WSW
250°
WSW
244°
WSW
253°
WSW
252°
WSW
229°
SW
220°
SW
227°
SW
227°
SW
230°
SW
231°
SW
219°
SW
199°
SSW
179°
S
191°
S
193°
SSW
198°
SSW
205°
SSW
213°
SSW
225°
SW
231°
SW
234°
SW
238°
WSW
241°
WSW
240°
WSW
237°
WSW
233°
SW
216°
SW
202°
SSW
212°
SSW
218°
SW
214°
SW
217°
SW
223°
SW
226°
SW
224°
SW
221°
SW
221°
SW
223°
SW
220°
SW
212°
SSW
208°
SSW
219°
SW
238°
WSW
244°
WSW
249°
WSW
263°
W
267°
W

Daily Forecast

Date High Low Precip. Humidity
Today
Dec 7

Rain
75 °F
64 °F
61%
71%
Thursday
Dec 8

Clouds
77 °F
63 °F
12%
69%
Friday
Dec 9

Rain
75 °F
60 °F
81%
77%
Saturday
Dec 10

Rain
73 °F
62 °F
60%
72%
Sunday
Dec 11

Rain
67 °F
61 °F
99%
86%
Monday
Dec 12

Clear
67 °F
51 °F
0%
59%
Tuesday
Dec 13

Rain
71 °F
55 °F
28%
62%
Wednesday
Dec 14

Rain
70 °F
64 °F
100%
82%
Thursday
Dec 15

Rain
67 °F
46 °F
100%
94%
Friday
Dec 16

Clear
51 °F
38 °F
0%
46%
Saturday
Dec 17

Clear
49 °F
33 °F
0%
44%
Sunday
Dec 18

Clouds
54 °F
34 °F
0%
41%
Monday
Dec 19

Rain
48 °F
43 °F
83%
92%
Tuesday
Dec 20

Rain
44 °F
40 °F
100%
76%
Wednesday
Dec 21

Rain
44 °F
39 °F
100%
97%
Thursday
Dec 22

Rain
43 °F
30 °F
39%
67%

Temperature 8-14 Day Outlook



Precipitation 8-14 Day Outlook




Quick Links
Bankhead Lake News
Bankhead Lake Photos
Bankhead Lake Videos




About Us
Contact Us
Site Map
Search Site
Advertise With Us
   
www.BankheadLake.info
THE BANKHEAD LAKE WEBSITE

Copyright 2022, Lakes Online
Privacy    |    Legal